Texas General Land Office
 Texas General Land Office
 George P. Bush, Commissioner

 Oil Spill Prevention
 & Response

Texas Automated Buoy System
Real Time Ocean Observations
Supporting Oil Spill Prevention and
Response since 1995
Geochemical and Environmental Research Group

TABS Buoy R -- Texas Automated Buoy System

TABS Buoy R Conditions at 04/23/2018 03:30 UTC (04/22/2018 22:30 CDT)
29° 38.1000'N   93° 38.5020'W
AA3900 DCS - sensor depth 2m
Water Depth: 32 feet (9 meters)
Speed: 5.18 cm/s (0.10 kts) Direction: 67 °T (ENE) Water Temp: 0°C (33 °F)
System Voltage: 12.7 V Signal Strength: -2.3 dB Ping Count: 140
  


IMPORTANT: Notice to Mariners


Today's Velocity Data (download)

   Date   |  Time  |   East |   North|   Speed|  Dir | WaterT |
          |  (UTC) |  (cm/s)|  (cm/s)|  (cm/s)| (°T) |  (°C)  |
==========+========+========+========+========+======+========+
04/22/2018 05:00:00   -11.70    -4.25    12.45  250.0    0.4
04/22/2018 05:30:00   -12.74    -5.25    13.78  247.6    0.4
04/22/2018 06:00:00   -15.31    -3.01    15.60  258.9    0.4
04/22/2018 06:30:00   -13.07    -3.23    13.46  256.1    0.4
04/22/2018 07:00:00   -12.30    -1.54    12.40  262.9    0.4
04/22/2018 07:30:00   -10.17    -1.02    10.22  264.3    0.4
04/22/2018 08:00:00    -7.92    -0.42     7.93  267.0    0.4
04/22/2018 08:30:00    -7.62    -1.42     7.75  259.4    0.4
04/22/2018 09:00:00    -6.85     0.12     6.85  271.0    0.4
04/22/2018 09:30:00    -7.95    -1.78     8.15  257.4    0.4
04/22/2018 10:00:00   -11.13    -1.65    11.25  261.6    0.4
04/22/2018 10:30:00    -4.78     0.10     4.78  271.2    0.4
04/22/2018 11:00:00   -11.46    -2.25    11.68  258.9    0.4
04/22/2018 11:30:00    -9.46    -2.27     9.73  256.5    0.4
04/22/2018 12:00:00   -11.37     3.03    11.77  284.9    0.4
04/22/2018 12:30:00   -12.43    -0.28    12.43  268.7    0.4
04/22/2018 13:00:00    -9.72    -2.96    10.16  253.1    0.4
04/22/2018 13:30:00    -7.67    -3.71     8.52  244.2    0.4
04/22/2018 14:00:00    -5.89    -0.83     5.95  262.0    0.4
04/22/2018 14:30:00    -6.53    -2.95     7.17  245.7    0.4
04/22/2018 15:00:00    -4.84    -3.34     5.88  235.4    0.4
04/22/2018 15:30:00    -3.67    -4.35     5.69  220.2    0.4
04/22/2018 16:00:00    -4.72    -2.77     5.47  239.6    0.4
04/22/2018 16:30:00    -3.85    -5.68     6.86  214.1    0.4
04/22/2018 17:00:00    -2.46    -6.29     6.75  201.4    0.4
04/22/2018 17:30:00    -2.32    -6.64     7.03  199.3    0.4
04/22/2018 18:00:00    -1.25    -4.73     4.89  194.8    0.4
04/22/2018 18:30:00    -0.67    -1.10     1.29  211.3    0.4
04/22/2018 19:00:00    -0.19    -5.57     5.57  182.0    0.4
04/22/2018 19:30:00     0.49    -5.34     5.36  174.8    0.4
04/22/2018 20:00:00     1.85    -2.55     3.15  144.0    0.4
04/22/2018 20:30:00     3.52    -1.66     3.89  115.2    0.4
04/22/2018 21:00:00     1.12    -6.34     6.44  170.0    0.4
04/22/2018 21:30:00     1.08    -3.52     3.68  162.9    0.4
04/22/2018 22:00:00     3.20    -5.15     6.06  148.1    0.4
04/22/2018 22:30:00     3.84    -4.96     6.27  142.3    0.4
04/22/2018 23:00:00     5.95    -3.21     6.76  118.3    0.4
04/22/2018 23:30:00     5.28    -1.37     5.45  104.5    0.4
04/23/2018 00:00:00     6.97    -2.27     7.33  108.0    0.4
04/23/2018 00:30:00     7.97     0.93     8.02   83.3    0.4
04/23/2018 01:00:00     8.59     1.63     8.74   79.3    0.4
04/23/2018 01:30:00     6.02     1.17     6.13   79.0    0.4
04/23/2018 02:00:00     6.66     2.67     7.18   68.2    0.4
04/23/2018 02:30:00     6.75     0.70     6.79   84.1    0.4
04/23/2018 03:00:00     6.18     0.76     6.23   83.0    0.4
04/23/2018 03:30:00     4.76     2.05     5.18   66.7    0.4



       
 

Today's Temperature - Salinity Data     (Download)


   Date   |  Time  |   Temp |   Cond |Salinity| Density|SoundVel|
          |  (UTC) |   (°C) | (ms/cm)|        | kg/m^3 |  (m/s) |
==========+========+========+========+========+========+========+
04/22/2018 05:00:00    20.48     3.60    25.20     0.00     0.00
04/22/2018 05:30:00    20.48     3.60    25.18     0.00     0.00
04/22/2018 06:00:00    20.48     3.60    25.18     0.00     0.00
04/22/2018 06:30:00    20.49     3.60    25.17     0.00     0.00
04/22/2018 07:00:00    20.49     3.60    25.16     0.00     0.00
04/22/2018 07:30:00    20.49     3.60    25.15     0.00     0.00
04/22/2018 08:00:00    20.49     3.60    25.13     0.00     0.00
04/22/2018 08:30:00    20.49     3.60    25.12     0.00     0.00
04/22/2018 09:00:00    20.48     3.60    25.12     0.00     0.00
04/22/2018 09:30:00    20.48     3.59     0.00     0.00     0.00
04/22/2018 09:30:00    20.48     3.59    25.12     0.00     0.00
04/22/2018 10:00:00    20.49     3.60    25.12     0.00     0.00
04/22/2018 10:30:00    20.50     3.60    25.13     0.00     0.00
04/22/2018 11:00:00    20.49     3.60    25.13     0.00     0.00
04/22/2018 11:30:00    20.49     3.60    25.13     0.00     0.00
04/22/2018 12:00:00    20.49     3.60    25.13     0.00     0.00
04/22/2018 12:30:00    20.49     3.59    25.11     0.00     0.00
04/22/2018 13:00:00    20.50     3.60    25.11     0.00     0.00
04/22/2018 13:30:00    20.51     3.60    25.12     0.00     0.00
04/22/2018 14:00:00    20.53     3.60    25.15     0.00     0.00
04/22/2018 14:30:00    20.54     3.60    25.17     0.00     0.00
04/22/2018 15:00:00    20.55     3.61    25.17     0.00     0.00
04/22/2018 15:30:00    20.60     3.61    25.17     0.00     0.00
04/22/2018 16:00:00    20.66     3.62    25.18     0.00     0.00
04/22/2018 16:30:00    20.74     3.62    25.16     0.00     0.00
04/22/2018 17:00:00    20.73     3.62    25.17     0.00     0.00
04/22/2018 17:30:00    20.75     3.62    25.16     0.00     0.00
04/22/2018 18:00:00    20.71     3.62    25.17     0.00     0.00
04/22/2018 18:30:00    20.70     3.62    25.18     0.00     0.00
04/22/2018 19:00:00    20.71     3.62    25.18     0.00     0.00
04/22/2018 19:30:00    20.72     3.62    25.17     0.00     0.00
04/22/2018 20:00:00    20.72     3.62    25.17     0.00     0.00
04/22/2018 20:30:00    20.72     3.62    25.17     0.00     0.00
04/22/2018 21:00:00    20.72     3.62    25.18     0.00     0.00
04/22/2018 21:30:00    20.73     3.62    25.18     0.00     0.00
04/22/2018 22:00:00    20.76     3.62    25.17     0.00     0.00
04/22/2018 22:30:00    20.77     3.62    25.16     0.00     0.00
04/22/2018 23:00:00    20.77     3.62    25.16     0.00     0.00
04/22/2018 23:30:00    20.75     3.62    25.16     0.00     0.00
04/23/2018 00:00:00    20.72     3.62    25.17     0.00     0.00
04/23/2018 00:30:00    20.71     3.62    25.18     0.00     0.00
04/23/2018 01:00:00    20.69     3.62    25.19     0.00     0.00
04/23/2018 01:30:00    20.67     3.62    25.20     0.00     0.00
04/23/2018 02:00:00    20.65     3.62    25.21     0.00     0.00
04/23/2018 02:30:00    20.64     3.62    25.22     0.00     0.00
04/23/2018 03:00:00    20.61     3.62    25.23     0.00     0.00
04/23/2018 03:30:00    20.60     3.62    25.23     0.00     0.00